Buena Vista, CO

2:41 AM MST on February 06, 2016 (GMT -0700)
Buena Vista

Weather History for KAEJ - February, 2014

Change the Weather History Date:

Sunday, February 16, 2014

  Actual Average (KLXV) Record (KLXV)
Temperature  
Mean Temperature 36 °F -  
Max Temperature 46 °F 32 °F 42 °F (1997)
Min Temperature 27 °F 5 °F -13 °F (1978)
Degree Days  
Heating Degree Days 28 47  
Month to date heating degree days 763  
Since 1 July heating degree days 7160  
Cooling Degree Days 0 0  
Month to date cooling degree days 0  
Year to date cooling degree days 0  
Moisture  
Dew Point 21 °F    
Average Humidity 54    
Maximum Humidity 82    
Minimum Humidity 30    
Precipitation  
Precipitation 0.00 in 0.03 in 0.41 in (1986)
Month to date precipitation 0.37  
Year to date precipitation 0.99  
Sea Level Pressure  
Sea Level Pressure 29.99 in    
Wind  
Wind Speed 7 mph (West)    
Max Wind Speed 38 mph    
Max Gust Speed 46 mph    
Visibility 10 miles    
Events Rain , Snow    
T = Trace of Precipitation, MM = Missing Value Source: NWS Daily Summary

Daily Weather History Graph

Daily Weather History Graph

Search for Another Location

Airport or City:

Trip Planner

Search our weather history database for the weather conditions in past years. The results will help you decide how hot, cold, wet, or windy it might be!

Date:

Astronomy

Feb. 16, 2014 Rise Set
Actual Time 6:54 AM MST 5:43 PM MST
Civil Twilight 6:27 AM MST 6:10 PM MST
Nautical Twilight 5:55 AM MST 6:41 PM MST
Astronomical Twilight 5:25 AM MST 7:12 PM MST
Moon 7:41 PM MST (2/16) 7:26 AM MST (2/16)
Length of Visible Light 11h 43m
Length of Day
10h 49m
Full, 97% of the Moon is Illuminated
Feb 16
Full
Feb 22
Last Quarter
Mar 1
New
Mar 8
First Quarter
Mar 16
Full

Hourly Weather History & Observations

Time (MST) Temp. Windchill Dew Point Humidity Pressure Visibility Wind Dir Wind Speed Gust Speed Precip Events Conditions
12:15 AM 35.8 °F - 23.0 °F 60% 30.09 in 10.0 mi Calm Calm - N/A   Clear
12:35 AM 33.6 °F 30.6 °F 23.4 °F 66% 30.09 in 10.0 mi ENE 3.5 mph - N/A   Clear
12:55 AM 32.7 °F 29.6 °F 23.9 °F 70% 30.09 in 10.0 mi WNW 3.5 mph - N/A   Clear
1:15 AM 34.3 °F 30.2 °F 23.5 °F 65% 30.09 in 10.0 mi SSE 4.6 mph - N/A   Clear
1:35 AM 32.2 °F - 23.7 °F 71% 30.08 in 10.0 mi Calm Calm - N/A   Clear
1:55 AM 32.0 °F - 23.5 °F 71% 30.07 in 10.0 mi Calm Calm - N/A   Clear
2:15 AM 32.7 °F 29.6 °F 23.4 °F 68% 30.07 in 10.0 mi NE 3.5 mph - N/A   Clear
2:35 AM 31.1 °F 27.7 °F 24.1 °F 75% 30.05 in 10.0 mi SW 3.5 mph - N/A   Clear
2:55 AM 30.6 °F 25.8 °F 24.1 °F 77% 30.05 in 10.0 mi WNW 4.6 mph - N/A   Clear
3:15 AM 30.0 °F - 23.7 °F 77% 30.05 in 10.0 mi Calm Calm - N/A   Clear
3:35 AM 28.9 °F - 23.4 °F 80% 30.03 in 10.0 mi Calm Calm - N/A   Clear
3:55 AM 29.8 °F 24.9 °F 23.0 °F 76% 30.03 in 10.0 mi West 4.6 mph - N/A   Clear
4:15 AM 29.7 °F - 22.6 °F 75% 30.02 in 10.0 mi Calm Calm - N/A   Clear
4:35 AM 27.9 °F 21.5 °F 22.6 °F 81% 30.02 in 10.0 mi West 5.8 mph - N/A   Clear
4:55 AM 27.0 °F - 22.1 °F 82% 30.01 in 10.0 mi Calm Calm - N/A   Clear
5:15 AM 27.9 °F 21.5 °F 21.7 °F 78% 30.01 in 10.0 mi West 5.8 mph - N/A   Clear
5:35 AM 28.9 °F - 21.6 °F 74% 30.02 in 10.0 mi Calm Calm - N/A   Clear
5:55 AM 28.2 °F - 22.3 °F 78% 30.01 in 10.0 mi Calm Calm - N/A   Clear
6:15 AM 28.4 °F 24.6 °F 22.8 °F 80% 30.00 in 10.0 mi NE 3.5 mph - N/A   Clear
6:35 AM 28.9 °F - 21.4 °F 73% 30.00 in 10.0 mi Calm Calm - N/A   Clear
6:55 AM 33.4 °F 28.1 °F 20.8 °F 60% 30.02 in 10.0 mi WSW 5.8 mph - N/A   Clear
7:15 AM 29.8 °F 22.2 °F 20.7 °F 69% 30.01 in 10.0 mi WNW 8.1 mph - N/A   Clear
7:35 AM 31.3 °F - 22.1 °F 69% 30.00 in 10.0 mi Calm Calm - N/A   Clear
7:55 AM 33.1 °F 28.7 °F 22.5 °F 65% 29.99 in 10.0 mi East 4.6 mph - N/A   Clear
8:15 AM 36.5 °F - 21.4 °F 54% 30.00 in 10.0 mi Calm Calm - N/A   Clear
8:55 AM 38.3 °F - 21.7 °F 51% 30.00 in 10.0 mi Calm Calm - N/A   Clear
9:15 AM 39.7 °F 36.5 °F 21.4 °F 48% 30.00 in 10.0 mi SSE 4.6 mph - N/A   Clear
9:35 AM 43.2 °F 38.4 °F 17.1 °F 35% 29.99 in 10.0 mi North 8.1 mph - N/A   Clear
9:55 AM 44.8 °F 38.3 °F 17.2 °F 33% 29.99 in 10.0 mi South 13.8 mph 33.4 mph N/A   Clear
10:15 AM 45.9 °F 40.4 °F 16.3 °F 31% 29.99 in 10.0 mi East 11.5 mph 31.1 mph N/A   Clear
10:35 AM 45.5 °F 37.6 °F 18.1 °F 34% 29.99 in 10.0 mi SSE 20.7 mph 33.4 mph N/A   Clear
10:55 AM 46.4 °F 41.1 °F 18.5 °F 33% 29.99 in 10.0 mi SW 11.5 mph 27.6 mph N/A   Clear
11:15 AM 45.0 °F 37.6 °F 22.3 °F 41% 29.96 in 10.0 mi WSW 17.3 mph 39.1 mph N/A   Clear
11:35 AM 45.5 °F 36.5 °F 21.7 °F 39% 29.95 in 10.0 mi SW 26.5 mph 42.6 mph N/A   Clear
11:55 AM 45.0 °F 36.6 °F 22.3 °F 41% 29.95 in 10.0 mi WSW 21.9 mph 33.4 mph N/A   Clear
12:15 PM 45.0 °F 35.1 °F 24.1 °F 44% 29.93 in 10.0 mi WSW 31.1 mph 39.1 mph N/A   Clear
12:35 PM 45.1 °F 35.1 °F 25.9 °F 47% 29.91 in 10.0 mi WSW 32.2 mph 40.3 mph N/A   Clear
12:55 PM 44.8 °F 33.9 °F 26.1 °F 48% 29.90 in 10.0 mi WSW 38.0 mph 46.0 mph N/A   Clear
1:15 PM 44.1 °F 33.2 °F 27.5 °F 52% 29.90 in 10.0 mi WSW 35.7 mph 46.0 mph N/A   Clear
1:35 PM 44.2 °F 34.6 °F 27.7 °F 52% 29.93 in 10.0 mi WSW 27.6 mph 38.0 mph N/A   Clear
1:55 PM 44.1 °F 36.8 °F 26.6 °F 50% 29.94 in 10.0 mi WSW 16.1 mph - N/A   Mostly Cloudy
2:15 PM 46.2 °F 42.7 °F 23.4 °F 41% 29.93 in 10.0 mi WSW 6.9 mph - N/A   Overcast
2:35 PM 46.2 °F 44.1 °F 21.6 °F 38% 29.92 in 10.0 mi WSW 4.6 mph - N/A   Mostly Cloudy
2:55 PM 46.0 °F 44.8 °F 20.5 °F 36% 29.92 in 10.0 mi ENE 3.5 mph - N/A   Mostly Cloudy
3:15 PM 46.4 °F 43.5 °F 19.8 °F 35% 29.91 in 10.0 mi WNW 5.8 mph - N/A   Overcast
3:35 PM 46.4 °F - 20.3 °F 36% 29.90 in 10.0 mi Calm Calm - N/A   Overcast
3:55 PM 45.3 °F 41.6 °F 22.6 °F 41% 29.91 in 10.0 mi WSW 6.9 mph - N/A   Overcast
4:15 PM 45.1 °F 42.0 °F 21.0 °F 38% 29.90 in 10.0 mi SSW 5.8 mph - N/A   Overcast
4:35 PM 42.4 °F - 24.8 °F 50% 29.90 in 10.0 mi North - - N/A   Mostly Cloudy
4:55 PM 43.3 °F 39.2 °F 22.5 °F 44% 29.90 in 10.0 mi WNW 6.9 mph - N/A   Overcast
5:15 PM 42.8 °F 38.6 °F 23.2 °F 46% 29.89 in 10.0 mi West 6.9 mph - N/A   Overcast
5:55 PM 41.5 °F 33.2 °F 25.7 °F 53% 29.94 in 10.0 mi West 17.3 mph 28.8 mph N/A   Overcast
6:15 PM 36.5 °F 31.0 °F 31.1 °F 81% 29.95 in 10.0 mi WNW 6.9 mph - N/A Snow Light Snow
6:35 PM 36.5 °F 31.8 °F 31.1 °F 81% 29.96 in 10.0 mi West 5.8 mph - N/A Rain Light Rain
6:55 PM 36.1 °F 31.4 °F 31.1 °F 82% 29.96 in 10.0 mi NNW 5.8 mph - N/A   Overcast
7:15 PM 37.9 °F 32.7 °F 29.1 °F 71% 29.96 in 10.0 mi WNW 6.9 mph 21.9 mph N/A   Overcast
7:35 PM 41.4 °F 33.6 °F 23.7 °F 50% 29.95 in 10.0 mi WSW 15.0 mph 20.7 mph N/A   Overcast
7:55 PM 41.9 °F 32.8 °F 21.0 °F 43% 29.95 in 10.0 mi WSW 20.7 mph 25.3 mph N/A   Overcast
8:15 PM 42.1 °F 33.6 °F 18.9 °F 39% 29.95 in 10.0 mi WSW 18.4 mph 31.1 mph N/A   Overcast
8:35 PM 42.4 °F 33.1 °F 14.0 °F 32% 29.96 in 10.0 mi WSW 23.0 mph 40.3 mph N/A   Overcast
8:55 PM 41.9 °F 32.3 °F 13.5 °F 32% 29.97 in 10.0 mi West 23.0 mph 36.8 mph N/A   Mostly Cloudy
9:15 PM 41.2 °F 33.4 °F 13.1 °F 32% 29.97 in 10.0 mi West 15.0 mph 32.2 mph N/A   Mostly Cloudy
9:35 PM 39.7 °F 30.3 °F 15.3 °F 37% 29.99 in 10.0 mi WSW 19.6 mph 34.5 mph N/A   Mostly Cloudy
9:55 PM 38.7 °F 27.3 °F 15.4 °F 39% 30.00 in 10.0 mi West 26.5 mph 35.7 mph N/A   Scattered Clouds
10:15 PM 37.9 °F 27.1 °F 17.4 °F 43% 30.03 in 10.0 mi WSW 23.0 mph 29.9 mph N/A   Clear
10:35 PM 38.7 °F 30.9 °F 12.0 °F 34% 30.05 in 10.0 mi West 12.7 mph 36.8 mph N/A   Clear
10:55 PM 37.8 °F 28.6 °F 9.0 °F 30% 30.07 in 10.0 mi West 16.1 mph 25.3 mph N/A   Clear
11:15 PM 36.5 °F 28.7 °F 9.0 °F 32% 30.09 in 10.0 mi West 11.5 mph 16.1 mph N/A   Clear
11:35 PM 35.2 °F 28.1 °F 9.7 °F 35% 30.10 in 10.0 mi WNW 9.2 mph - N/A   Clear
11:55 PM 33.1 °F 24.9 °F 13.3 °F 44% 30.12 in 10.0 mi NW 10.4 mph - N/A   Clear